カタログに戻る

SHIYAN 30-04

運用中軍事VLEO
NORAD 68140·PAYLOAD·🇨🇳 China

打ち上げ Mar 12, 2026 から Xichang Satellite Launch Center

Loading…

次のパス (今後24時間)

TLE

最新Source: Space-Track

元期: Sep 14, 2026, 18:28 UTC

1 68140U 26048B   26257.76963934  .00001377  00000-0  13608-3 0  9997
2 68140  34.9909  90.9470 0001853  41.0238 319.0606 14.91951180 27754

AllMySatでSHIYAN 30-04をリアルタイム追跡

Download on the App Store